{"data":{"norad_id":68927,"epoch":"2026-05-24T12:18:07.113312Z","epoch_age_seconds":113226,"freshness":"FRESH","line1":"1 68927U 26098J   26144.51258233 -.00017929  00000+0 -49129-3 0  9990","line2":"2 68927  51.8764 181.5941 0002389 136.0910 224.0267 15.36171573  3719","mean_motion":15.36171573,"eccentricity":0.0002389,"inclination_deg":51.8764,"raan_deg":181.5941,"arg_perigee_deg":136.091,"mean_anomaly_deg":224.0267,"bstar":-0.00049129,"rev_number":371,"period_min":93.739529184739,"perigee_km":455.80979284587,"apogee_km":459.07583288045,"semimajor_km":6835.5798128632,"source":"CELESTRAK","updated_at":"2026-05-25T13:38:08.794097Z"}}